Weather History for Akron Canton, OH

Change the Weather History Date:

Sunday, June 8, 2014

  Actual Average Record
Temperature  
Mean Temperature 62 °F 66 °F  
Max Temperature 67 °F 76 °F 99 °F (1933)
Min Temperature 57 °F 56 °F 36 °F (1912)
Degree Days  
Heating Degree Days 3 2  
Month to date heating degree days 12 25  
Since 1 June heating degree days 12 25  
Since 1 July heating degree days 6419 6126  
Cooling Degree Days 0 3  
Month to date cooling degree days 22 23  
Year to date cooling degree days 98 65  
Since 1 June cooling degree days 22 23  
Growing Degree Days 12 (Base 50)    
Moisture  
Dew Point 58 °F    
Average Humidity 76    
Maximum Humidity 93    
Minimum Humidity 58    
Precipitation  
Precipitation 0.78 in 0.13 in 1.51 in (1990)
Month to date precipitation 2.25 1.04  
Year to date precipitation 18.88 16.77  
Snow  
Snow 0.00 in 0.00 in - ()
Month to date snowfall 0.0 0.0  
Since 1 June snowfall 0.0 0.0  
Since 1 July snowfall 69.9 47.5  
Snow Depth 0.00 in    
Sea Level Pressure  
Sea Level Pressure 29.84 in    
Wind  
Wind Speed 7 mph (NNE)    
Max Wind Speed 17 mph    
Max Gust Speed 17 mph    
Visibility 6 miles    
Events Rain , Thunderstorm    
T = Trace of Precipitation, MM = Missing Value Source: NWS Daily Summary

Daily Weather History Graph

Daily Weather History Graph

Search for Another Location

Airport:

Trip Planner

Search our weather history database for the weather conditions in past years. The results will help you decide how hot, cold, wet, or windy it might be!

Date:

Astronomy

Jun. 08, 2014 Rise Set
Actual Time 5:53 AM EDT 8:56 PM EDT
Civil Twilight 5:20 AM EDT 9:29 PM EDT
Nautical Twilight 4:38 AM EDT 10:11 PM EDT
Astronomical Twilight 3:48 AM EDT 11:01 PM EDT
Moon 4:11 PM EDT (6/8) 2:48 AM EDT (6/8)
Length of Visible Light 16h 08m
Length of Day
15h 02m
Waxing Gibbous, 77% of the Moon is Illuminated
Jun 8
Waxing Gibbous
Jun 13
Full
Jun 19
Last Quarter
Jun 27
New
Jul 5
First Quarter

Hourly Weather History & Observations

Time (EDT) Temp. Dew Point Humidity Pressure Visibility Wind Dir Wind Speed Gust Speed Precip Events Conditions
12:51 AM 66.0 °F 51.1 °F 59% 29.91 in 10.0 mi East 4.6 mph - N/A   Scattered Clouds
1:51 AM 64.0 °F 51.1 °F 63% 29.89 in 10.0 mi ESE 4.6 mph - N/A   Mostly Cloudy
2:51 AM 62.1 °F 51.1 °F 67% 29.86 in 10.0 mi ESE 4.6 mph - N/A   Mostly Cloudy
3:51 AM 62.1 °F 52.0 °F 70% 29.84 in 10.0 mi East 3.5 mph - N/A   Overcast
4:51 AM 61.0 °F 53.1 °F 75% 29.83 in 10.0 mi East 3.5 mph - N/A   Overcast
5:51 AM 62.1 °F 53.1 °F 72% 29.81 in 10.0 mi East 4.6 mph - N/A   Overcast
6:51 AM 62.1 °F 53.1 °F 72% 29.80 in 10.0 mi East 8.1 mph - N/A   Overcast
7:51 AM 64.9 °F 54.0 °F 68% 29.79 in 10.0 mi ESE 8.1 mph - N/A   Overcast
8:51 AM 66.0 °F 57.0 °F 73% 29.82 in 3.0 mi SSW 5.8 mph - 0.04 in Rain Rain
8:58 AM 66.2 °F 57.2 °F 73% 29.84 in 2.5 mi SSW 5.8 mph - 0.02 in Rain Rain
9:35 AM 64.4 °F 60.8 °F 88% 29.81 in 4.0 mi NE 5.8 mph - 0.25 in   Overcast
9:51 AM 64.0 °F 61.0 °F 90% 29.78 in 3.0 mi Calm Calm - 0.25 in Rain Light Rain
10:26 AM 64.4 °F 62.6 °F 94% 29.79 in 1.5 mi East 3.5 mph - 0.09 in Rain Light Rain
10:46 AM 64.4 °F 62.6 °F 94% 29.81 in 2.5 mi East 3.5 mph - 0.18 in Rain , Thunderstorm Light Thunderstorms and Rain
10:51 AM 64.9 °F 62.1 °F 90% 29.79 in 1.5 mi Calm Calm - 0.24 in Rain , Thunderstorm Thunderstorms and Rain
11:02 AM 64.4 °F 62.6 °F 94% 29.82 in 1.0 mi Calm Calm - 0.12 in Rain , Thunderstorm Thunderstorms and Rain
11:20 AM 62.6 °F 60.8 °F 94% 29.82 in 2.5 mi West 5.8 mph - 0.21 in Rain Light Rain
11:36 AM 62.6 °F 60.8 °F 94% 29.82 in 2.5 mi WNW 5.8 mph - 0.21 in   Overcast
11:51 AM 64.0 °F 61.0 °F 90% 29.80 in 2.5 mi North 9.2 mph - 0.21 in   Overcast
12:31 PM 64.4 °F 60.8 °F 88% 29.82 in 3.0 mi NE 6.9 mph - 0.21 in   Overcast
12:51 PM 64.9 °F 61.0 °F 87% 29.81 in 3.0 mi Calm Calm - 0.00 in Rain Light Rain
1:51 PM 66.0 °F 63.0 °F 90% 29.80 in 5.0 mi West 5.8 mph - 0.00 in   Mostly Cloudy
2:51 PM 66.9 °F 63.0 °F 87% 29.81 in 7.0 mi WNW 11.5 mph - N/A   Overcast
3:51 PM 64.9 °F 61.9 °F 90% 29.83 in 4.0 mi NNW 11.5 mph - 0.03 in Rain Light Rain
4:51 PM 62.8 °F 59.5 °F 89% 29.85 in 3.0 mi North 11.5 mph - 0.01 in Rain Light Rain
5:25 PM 62.6 °F 57.2 °F 82% 29.87 in 9.0 mi North 16.1 mph - N/A   Overcast
5:51 PM 62.2 °F 57.2 °F 84% 29.87 in 9.0 mi North 17.3 mph - 0.00 in   Overcast
6:51 PM 62.2 °F 55.9 °F 80% 29.88 in 10.0 mi North 11.5 mph - N/A   Overcast
7:51 PM 62.2 °F 55.9 °F 80% 29.89 in 10.0 mi North 8.1 mph - N/A   Mostly Cloudy
8:51 PM 59.9 °F 55.4 °F 85% 29.91 in 10.0 mi North 8.1 mph - N/A   Scattered Clouds
9:51 PM 58.5 °F 55.4 °F 90% 29.93 in 10.0 mi North 8.1 mph - N/A   Scattered Clouds
10:51 PM 56.7 °F 54.7 °F 93% 29.95 in 10.0 mi North 3.5 mph - N/A   Clear